Regional Weather Roundup
Issued by NWS Wakefield, VA

Home | Current Version | Previous Version | Text Only | Print | Product List | Glossary On
Versions: 1 2 3 4 5 6 7 8 9 10 11 12 13 14 15 16 17 18 19 20 21 22 23 24 25 26 27
000
ASUS41 KAKQ 130515
RWRAKQ

REGIONAL WEATHER ROUNDUP
NATIONAL WEATHER SERVICE WAKEFIELD VA
1200 AM EST WED DEC 13 2017

Note: "fair" indicates few or no clouds below 12,000 feet with no
significant weather and/or obstructions to visibility. * = Denotes
station may not report precipitation (e.g., rain,snow,etc.),
thunder or fog.

VAZ042-051-052>054-056-130600-
NORTHERN VIRGINIA

CITY           SKY/WX    TMP DP  RH WIND       PRES   REMARKS
WASH NATIONAL  PTCLDY    25   1  35 NW14G29   29.75R WCI  13
DULLES         MOCLDY    23   1  38 NW33G43   29.74R WCI   5
FORT BELVOIR   CLOUDY    25   2  36 W22       29.75R WCI  10
QUANTICO       PTCLDY    26   7  44 N28G44    29.78R WCI  10
FREDERICKSBRG* PTCLDY    26   6  42 NW21G26   29.76S WCI  12
STAFFORD*      PTCLDY    24   1  36 NW21G28   29.80R WCI  10
WARRENTON      CLOUDY    26  -1  31 NW14G20   29.75S WCI  14
CULPEPER*      PTCLDY    26  -1  31 NW9G25    29.77S
MANASSAS*      CLOUDY    24   5  44 NW20G29   29.76S WCI  10
LEESBURG*      CLOUDY    25   7  46 NW17G30   29.75S WCI  11
WINCHESTER     CLOUDY    21   1  42 NW16G26   29.74R WCI   7
FRONT ROYAL*   CLOUDY    23   5  46 MISG      29.74S
LURAY*         CLOUDY    23   9  54 N14       29.73S WCI  11
$$

VAZ048-049-060>072-079>083-130600-
CENTRAL AND SOUTH CENTRAL VIRGINIA

CITY           SKY/WX    TMP DP  RH WIND       PRES   REMARKS
RICHMOND       PTCLDY    28   6  39 NW13      29.76R WCI  17
CHESTERFIELD*  NOT AVBL
PETERSBURG*    CLEAR     28   0  29 NW13G20   29.78S WCI  18
HANOVER        CLEAR     27   3  35 NW15G28   29.78R WCI  15
TAPPAHANNOCK*  NOT AVBL
QUINTON*       FAIR      28   6  40 NW16G24   29.75R WCI  15
CHARLOTTSVILLE PTCLDY    26   2  35 W8G21     29.74F
GORDONSVILLE*  PTCLDY    26   2  36 W10G20    29.75S WCI  16
ORANGE*        MOCLDY    27   1  33 W3        29.75F
LOUISA*        PTCLDY    24   2  37 W15G21    29.80S WCI  12
BUMPASS*       FAIR      25   1  34 W7        29.76S
FARMVILLE*     CLEAR     28   6  39 NW3       29.78R
CREWE*         FAIR      27   6  40 W9        29.78R
FORT PICKETT*  NOT AVBL
CHASE CITY*    FAIR      28   7  40 NW17G29   29.79S WCI  16
CLARKSVILLE*   MOCLDY    28   9  43 NW10      29.80S WCI  19
SOUTH HILL*    CLEAR     28   5  37 NW6       29.84S
LAWRENCEVILLE* FAIR      28   3  33 NW9G16    29.78S
EMPORIA*       CLEAR     28   5  37 W14G21    29.80S WCI  17
$$

VAZ088>098-130600-
SOUTHEAST VIRGINIA

CITY           SKY/WX    TMP DP  RH WIND       PRES   REMARKS
NORFOLK        CLEAR     33  13  43 NW15G24   29.73R WCI  23
VIRGINIA BEACH PTCLDY    31  15  52 NW18G31   29.71R WCI  19
NORFOLK NAVAL  MOCLDY    32  11  41 NW22G33   29.74R WCI  19
WEST POINT*    MOCLDY   N/A N/A N/A NW9G16    29.76R
SALUDA*        MOCLDY    30  14  51 NW13G26   29.72R WCI  20
NEWPORT NEWS   CLEAR     30  10  43 NW18G28   29.73R WCI  18
LANGLEY AFB    PTCLDY    29  13  50 NW14G25   29.72R WCI  19
FORT EUSTIS    CLEAR     30  11  44 NW20G30   29.71R WCI  18
WILLIAMSBURG*  CLEAR     30  12  47 NW13G22   29.75R WCI  20
HR EXEC AP*    MOCLDY    31   9  39 NW10G22   29.75R WCI  22
FRANKLIN*      MOCLDY    31   8  38 NW17G26   29.77R WCI  20
US460-WAKEFLD  PTCLDY    29   5  36 NW13G22   29.76R WCI  19
$$

VAZ020-022-025-037-045-130600-
WEST CENTRAL AND SOUTHWEST VIRGINIA

CITY           SKY/WX    TMP DP  RH WIND       PRES   REMARKS
STAUNTON*      CLOUDY    22   3  43 NW9       29.74F
WAYNESBORO*    CLOUDY    21   3  45 W8G16     29.71S
HOT SPRINGS VA MOCLDY    11   0  59 W29G49    29.54F WCI -10
LYNCHBURG      CLOUDY    25   3  38 W6G18     29.79R
DANVILLE       PTCLDY    27   8  44 NW13G28   29.84R WCI  16
SOUTH BOSTON*  MOCLDY    28   9  43 NW7       29.82S
MARTINSVILLE   MOCLDY    26   7  43 NW15G23   29.85S WCI  14
ROANOKE        MOCLDY    24   7  48 NW13G28   29.81R WCI  12
BLACKSBURG     CLOUDY    19  12  74 W9G24     29.79S
DUBLIN*        MOCLDY    22   9  57 NW21G28   29.77F WCI   6
MARION*        CLOUDY    21   4  47 W24G41    29.78F WCI   4
HILLSVILLE*    MOCLDY    19   5  54 NW16G29   29.70F WCI   4
RICHLANDS*     CLOUDY    19   7  59 NW10G17   29.83F WCI   7
WISE*          MOCLDY    19   9  63 W12       29.88S WCI   7
ABINGDON*      CLEAR     24   5  44 NW9G22    29.89F
$$

MDZ021>025-VAZ099-100-130600-
SOUTHERN MARYLAND AND THE DELMARVA PENINSULA

CITY           SKY/WX    TMP DP  RH WIND       PRES   REMARKS
PATUXENT RIVER PTCLDY    26   6  42 NW23G40   29.73R WCI  11
BAY BRIDGE APT CLOUDY    27   9  46 MISG      29.71R
LEONARDTOWN    PTCLDY    27   1  33 NW15G29   29.74R WCI  15
DOVER          CLEAR     25   5  42 NW25G36   29.64R WCI   9
GEORGETOWN     PTCLDY    28   4  35 NW13G29   29.65R WCI  17
EASTON         MOCLDY    27  11  49 NW24G36   29.72R WCI  13
CAMBRIDGE      MOCLDY    27   5  39 NW18G33   29.70R WCI  13
SALISBURY      PTCLDY    27  10  49 W14G26    29.66R WCI  16
OCEAN CITY     PTCLDY    28  10  46 NW17G32   29.64R WCI  16
WALLOPS ISLAND PTCLDY    28  13  53 NW20G28   29.68R WCI  15
ACCOMACK*      CLOUDY    31  13  48 NW26G38   29.69R WCI  16
$$

NCZ012>017-030>032-130600-
NORTH CENTRAL AND EASTERN NORTH CAROLINA

CITY           SKY/WX    TMP DP  RH WIND       PRES   REMARKS
ROANOKE RAPIDS FAIR      32   7  34 NW14G23   29.80R WCI  22
RALEIGH        PTCLDY    30   8  39 N7        29.83R
ELIZABETH CITY CLEAR     34  10  37 W21G33    29.73R WCI  22
AHOSKIE*       CLEAR     31   5  33 NW6       29.78R
EDENTON*       CLEAR     36  14  40 NW13G23   29.75R
CURRITUCK*     CLOUDY    35  22  59 NW9G20    29.72R
KILL DEVIL HLS CLOUDY    35  28  73 NW14G21   29.68R
MANTEO         CLOUDY    37  28  71 N15G25    29.70R
CAPE HATTERAS  CLOUDY    41  27  57 NW20G30   29.70R
TARBORO*       NOT AVBL
GOLDSBORO      CLEAR     34  14  44 NW9       29.80R
WASHINGTON     PTCLDY    34  17  48 NW9G23    29.79R
GREENVILLE     CLEAR     34  18  51 NW10      29.82R
NEW BERN       CLEAR     35  16  45 NW17G30   29.80R WCI  25
WILMINGTON     CLEAR     39  14  36 NW17G24   29.82R
$$

VAZ048-130600-
ELSEWHERE

CITY           SKY/WX    TMP DP  RH WIND       PRES   REMARKS
HARRISBURG PA  PTCLDY    21   3  45 NW25      29.66S WCI   4
BALTIMORE      PTCLDY    23   2  40 W25G33    29.71R WCI   7
ANNAPOLIS      MOCLDY    25  15  66 NW15G30   29.71R WCI  13
ANDREWS AFB    PTCLDY    23   0  35 NW18G29   29.72R WCI   9
PHILADELPHIA   CLEAR     24   0  35 W18G25    29.63R WCI  10
HENDERSON NC   CLEAR     27   4  38 NW12G25   29.80S WCI  17
GREENSBORO     PTCLDY    28   9  44 NW12G23   29.82S WCI  18
ROCKY MOUNT    CLEAR     31  15  52 NW13G22   29.82R WCI  21
$$

VAZ100-130600-
MARINE

STATION/POSITION TIME  TEMP    WIND        PRES    WAVE   SWELL
                       AIR SEA DIR/SP/G            HT/PER HT/PER
                 (UTC) (F)     (DEG/KT/KT) (MB)    (FT/S) (FT/S)
BRANDYWINE LGT   0436   28     330/ 26/ 35 1002.6R
CAPE MAY NJ      0442   29 43  330/ 19/ 34 1002.3R
LEWES DE         0436   31 46  310/ 29/ 35 1002.8R
15NM E FENWICK I 0450   33 54  300/ 27/ 35 1001.9R   8/ 6
OCEAN-CITY-INLET 0436   30 46  320/ 20/ 27 1003.7R
WACHAPREAGUE VA  0448   30 43  300/ 10/ 17 1005.2R
THOMAS POINT MD  0500   25 47  310/ 22/ 25   N/A
GOOSES REEF MD   0500   28 47  340/ 25/ 33 1006.9    4/ 4
COVE POINT MD    0448   27     330/ 21/ 31 1007.0R
SOLOMONS ISLAND  0436   28 48  310/ 19/ 30 1006.3R
BISHOPS HEAD MD  0448   28 40  310/ 28/ 36 1006.7R
PINEY POINT MD   0436          340/ 31/ 34   N/A
POTOMAC MD       0500   30 49  330/ 27/ 33 1005.6    4/ 4
CAMBRIDGE MD     0436   27 44              1006.2R
LEWISETTA VA     0448   29 44  340/ 16/ 22 1006.9R
RAPPAHANNOCK LGT 0436          310/ 32/ 39 1005.9R
STINGRAY PT      0450   32     350/ 23/ 29 1006.3R
YORK RVR RNG VA  0448   32     330/ 22/ 25 1007.0R
YORKTOWN VA      0436   33 49  310/ 30/ 34 1006.6R
JAMESTOWN VA     0500      47  320/ 21/ 27   N/A     2/ 2
DOMINION TERM VA 0430   35     320/ 25/ 33 1005.9R
KIPTOPEKE VA     0436      47  340/ 31/ 34   N/A
CAPE HENRY VA    0436   34     290/ 26/ 36   N/A
WILLOUBY STN VA  0436          310/ 25/ 31 1006.4R
S CRANEY ISL VA  0436   33     310/ 13/ 22 1006.2R
CAPE HENRY BUOY  0500      54                N/A     6/ 5
1ST LANDING BUOY 0500   35 50  320/ 27/ 35 1005.8    4/ 3
CAPE CHARLES BUO 0451      53                N/A     6/ 4
64NM E OF VA BCH 0450   40 60  300/ 31/ 37 1002.4R  11/ 7
DUCK PIER NC     0436   37 56  330/ 24/ 28 1004.6R
44100 DUCK FRF   0445      55                N/A     7/ 6
44056 DUCK FRF   0500      56                N/A     6/ 6
OREGON INLET NC  0436   34 47  330/ 13/ 22 1005.0R
HATTERAS NC      0436   42 56  310/ 27/ 32 1005.3R
DIAMOND SHLS NC  0450   45 72  310/ 31/ 41 1005.2R  10/ 6   2/12
CAPE LOOKOUT NC  0500          310/ 20/ 26 1007.8R
$$




USA.gov is the U.S. government's official web portal to all federal, state and local government web resources and services.